Location: Gasteig
(47.0667°N, 11.2500°E)
Time: 01:57:40
(UTC+00:00)

Daily predictions for brighter satellites

Satellite Brightness Start Highest point End
(mag) Time Altitude Azimuth Time Altitude Azimuth Time Altitude Azimuth
USA 215 4.2 02:51:48 10° NE 02:55:54 42° NE 02:55:54 42° NE
Cosmos 1943 Rocket 4.5 03:09:37 15° NNE 03:11:39 18° NE 03:15:28 10° E
USA 267 4.3 03:25:30 10° SSE 03:29:01 32° SSE 03:29:01 32° SSE
Cosmos 2278 Rocket 4.0 03:36:40 21° SSE 03:36:40 21° SSE 03:38:27 10° SSE
SL-16 R/B 4.4 03:30:40 10° SSE 03:34:58 23° E 03:39:16 10° NE
COSMO-SKYMED 1 4.4 03:31:41 10° SE 03:35:20 29° ENE 03:35:20 29° ENE
Cosmos 2219 Rocket 3.9 03:41:53 23° N 03:41:53 23° N 03:44:03 10° NNE
Cosmos 2237 Rocket 2.5 03:43:06 65° ENE 03:43:06 65° ENE 03:48:16 10° NNE
CZ-2C R/B 4.2 03:44:59 11° SE 03:44:59 11° SE 03:45:21 10° SE
ERS-2 4.4 03:47:48 10° ESE 03:50:35 23° ENE 03:50:35 23° ENE
BREEZE-M DEB (TANK) 3.8 03:55:50 57° W 03:57:37 78° SSW 04:01:48 10° ESE
Cosmos 1513 Rocket 4.3 03:57:03 66° SSW 03:58:02 87° W 04:04:15 10° N
Cosmos 1626 Rocket 4.3 04:00:29 50° ESE 04:00:29 50° ESE 04:04:07 10° SSE
Cosmos 2333 Rocket 3.8 04:04:35 22° N 04:04:35 22° N 04:07:05 10° NNE
Lacrosse 4 Rocket 2.2 04:04:26 50° ESE 04:04:26 50° ESE 04:08:25 10° NE
FENGYUN 3A 3.9 04:00:37 10° N 04:04:53 55° N 04:04:53 55° N
Cosmos 1891 Rocket 4.3 04:10:02 69° W 04:10:16 69° W 04:16:20 10° N
Cosmos 2297 4.2 04:08:13 26° N 04:11:23 57° ENE 04:17:03 10° SE
Cosmos 2360 Rocket 4.3 04:15:25 12° NNW 04:15:25 12° NNW 04:16:24 10° N
Cosmos 1464 Rocket 3.8 04:13:47 49° SW 04:15:25 69° W 04:21:36 10° N
Cosmos 841 Rocket 3.5 04:16:53 60° NNW 04:16:53 60° NNW 04:21:22 10° NNE
Gbstr 26 Del rocket 4.4 04:13:50 47° SW 04:16:23 85° SSE 04:24:34 10° ENE
Cosmos 1980 3.6 04:17:06 65° NW 04:17:06 65° NW 04:22:40 10° NNE
MOS 1 Rocket 3.8 04:14:03 10° SSE 04:18:47 57° ENE 04:23:13 10° N
Meteor 1-31 Rocket 4.5 04:15:35 10° NNE 04:17:17 25° NNE 04:17:17 25° NNE
Meteor 1-21 Rocket 4.1 04:17:53 36° NNW 04:20:17 72° W 04:26:07 10° S
Meteor 2-13 Rocket 4.3 04:15:00 10° NNW 04:21:10 77° W 04:27:17 10° S
Cosmos 1346 Rocket 4.3 04:18:51 13° N 04:22:07 36° ENE 04:25:49 10° SE
Cosmos 1072 Rocket 4.5 04:22:08 51° WSW 04:23:10 57° WNW 04:29:27 10° N
SKYMED 2 3.5 04:18:57 10° SSE 04:23:17 84° ENE 04:23:56 64° N
COSMOS 2428 4.0 04:25:09 25° NNW 04:25:09 25° NNW 04:28:28 10° N
Atlas Centaur 2 4.4 04:26:50 17° SSW 04:29:27 20° S 04:34:53 10° SE
ATLAS CENTAUR R/B 1.4 04:31:44 59° NE 04:31:44 59° NE 04:34:47 10° NE
METEOR-M 4.1 04:27:54 10° N 04:33:09 58° WNW 04:34:33 44° WSW
Cosmos 1689 Rocket 3.3 04:32:45 10° SE 04:35:29 40° ENE 04:35:31 40° ENE
Cosmos 2150 Rocket 4.0 04:33:50 24° NNW 04:37:12 90° WSW 04:42:38 10° SSE
Cosmos 2084 Rocket 3.4 04:37:18 66° W 04:37:35 69° SW 04:42:04 10° SSE
Cosmos 1092 Rocket 3.9 04:32:06 10° N 04:38:17 87° ENE 04:44:30 10° S
Cosmos 1340 4.2 04:41:59 23° SSW 04:41:59 23° SSW 04:43:35 10° S
Cosmos 372 Rocket 4.3 04:40:33 44° WSW 04:40:33 44° WSW 04:45:17 10° S
ALOS 3.9 04:36:14 10° N 04:37:53 20° NNW 04:37:53 20° NNW
USA 215 3.9 04:34:49 10° NE 04:40:50 41° N 04:43:16 30° NW
NOSS 3-3 (A) 4.5 04:37:23 23° NW 04:42:36 89° SW 04:51:01 10° SE
Cosmos 1602 Rocket 3.4 04:40:25 29° NNW 04:42:37 72° W 04:47:04 10° S
NOSS 3-3 (C) 4.5 04:37:28 23° NW 04:42:42 90° WSW 04:51:07 10° SE
GEOS 3 Rocket 4.1 04:37:50 10° ESE 04:43:08 62° NE 04:46:52 20° NNW
BREEZE-M DEB (TANK) 3.5 04:44:16 29° NE 04:44:16 29° NE 04:45:42 10° ENE
ADEOS 3.6 04:38:25 10° N 04:43:33 57° WNW 04:47:41 16° SW
YAOGAN 6 4.1 04:41:18 10° NNE 04:44:48 39° E 04:48:17 10° SSE
USA 307 2.8 04:44:42 55° WSW 04:45:36 89° NW 04:49:51 10° ENE
NOSS 0 Rocket 4.4 04:45:40 37° WNW 04:46:42 39° NW 04:52:28 10° NNE
FALCON 9 DEB 4.2 04:46:55 31° S 04:47:38 36° SE 04:50:32 10° ENE
Cosmos 1328 3.6 04:46:59 50° NW 04:47:50 69° W 04:51:43 10° S
Nadezhda 4 Rocket 4.0 04:42:49 10° NNW 04:48:41 50° W 04:54:31 10° SSW
BREEZE-M (TANK) 3.5 04:52:16 19° SSE 04:52:16 19° SSE 04:53:02 10° SE
USA 305 2.7 04:50:49 49° WSW 04:51:55 80° NNW 04:56:10 10° ENE
Cosmos 2098 Rocket 3.6 04:48:24 10° N 04:54:10 72° E 04:58:39 10° SSE
Cosmos 1400 Rocket 2.9 04:53:19 39° SW 04:54:27 52° WNW 04:58:31 10° N
USA 308 2.8 04:53:18 44° WSW 04:54:36 80° NNW 04:58:54 10° ENE
SL-4 R/B 1.8 04:55:30 53° W 04:56:16 72° NNW 05:00:19 10° ENE
FALCON 9 DEB 4.2 04:55:02 25° SSW 04:56:19 38° SE 04:59:16 10° ENE
Cosmos 1943 Rocket 2.3 04:51:10 13° NNW 04:56:21 79° ENE 05:02:01 10° SSE
Cosmos 2034 Rocket 4.2 04:50:59 10° SSW 04:57:07 49° WNW 05:03:16 10° N
Okean O Rocket 4.4 04:54:26 10° NE 04:57:43 20° E 05:00:58 10° SE
Meteor 1-16 Rocket 4.4 04:52:19 10° SSW 04:58:06 53° WNW 05:03:55 10° N
Cosmos 1825 Rocket 3.9 04:53:40 10° N 04:58:10 70° E 05:02:36 10° SSE
Cosmos 1570 Rocket 4.4 04:57:36 34° W 04:58:50 39° WNW 05:03:46 10° N
CZ-2C R/B 3.6 04:56:18 10° SE 05:01:20 48° ENE 05:06:31 10° N
Cosmos 540 Rocket 4.3 05:01:40 29° WNW 05:01:43 29° NW 05:06:11 10° N
SJ-12 4.2 04:57:53 10° N 05:01:50 44° WNW 05:04:12 21° SW
Cosmos 2298 Rocket 4.2 05:00:29 21° NW 05:03:51 51° WSW 05:08:58 10° S
USA 306 2.8 05:02:36 37° W 05:04:11 69° NNW 05:08:26 10° ENE
H-2A R/B 4.5 05:00:57 10° NNE 05:05:05 34° E 05:09:10 10° SSE
Cosmos 1814 Rocket 4.4 05:03:50 29° W 05:05:31 37° WNW 05:10:17 10° N
NOSS 3-2 (A) 3.3 05:00:28 13° SW 05:05:37 77° NW 05:12:14 10° NE
Envisat 3.2 05:01:00 10° NNE 05:06:06 73° ESE 05:11:10 10° S
Cosmos 1125 Rocket 3.4 05:01:52 13° NNW 05:06:41 70° WSW 05:11:57 10° S
Cosmos 2369 Rocket 2.7 05:01:11 10° NNW 05:06:44 59° ENE 05:12:14 10° SE
Cosmos 1634 Rocket 3.9 05:01:07 10° S 05:07:17 84° W 05:13:32 10° N
CZ-4B R/B 2.8 05:07:24 10° N 05:10:57 50° WNW 05:14:36 10° SSW
COSMO-SKYMED 1 3.3 05:07:37 10° SSW 05:11:30 32° W 05:12:33 28° WNW
PSLV R/B 4.0 05:09:27 10° S 05:13:29 53° W 05:17:35 10° NNW
DMSP B5D1-3 4.4 05:11:27 10° S 05:16:33 77° WSW 05:21:40 10° NNW
Cosmos 2228 2.9 05:13:15 10° S 05:17:29 86° W 05:21:45 10° N
SL-16 R/B 2.2 05:12:59 10° SW 05:18:36 62° WNW 05:24:15 10° NNE
NOSS 3-2 (C) 3.4 05:13:33 10° SW 05:19:13 85° SE 05:25:47 10° NE
CZ-2C R/B 3.7 05:19:56 10° SW 05:21:26 12° SSW 05:22:53 10° S
ERBS 3.3 05:19:06 10° SSW 05:22:14 44° SE 05:25:22 10° ENE
Cosmos 972 Rocket 4.4 05:16:50 10° SW 05:22:55 55° WNW 05:28:24 10° NNE
Cosmos 1953 Rocket 3.6 05:19:07 10° N 05:23:29 84° E 05:27:50 10° S
Cosmos 2219 Rocket 4.0 05:23:36 12° NW 05:24:06 12° NNW 05:26:12 10° N
ERS-2 3.0 05:21:00 10° SSW 05:24:10 28° W 05:25:09 24° WNW
Cosmos 2026 Rocket 4.1 05:18:15 10° NNW 05:24:28 57° W 05:30:40 10° SSW
ATLAS 5 CENTAUR R/B 3.8 05:25:47 11° SW 05:26:25 12° SW 05:28:10 10° SSW
CENTAUR R/B 2.5 05:20:32 10° SW 05:26:29 84° NW 05:33:40 10° NE
Cosmos 2237 Rocket 3.3 05:24:59 20° W 05:27:11 25° NW 05:31:51 10° N
H-2A R/B 3.0 05:24:25 10° N 05:27:56 41° WNW 05:31:28 10° SW
Meteor PRIRODA 4.4 05:29:21 10° N 05:32:32 29° WNW 05:35:43 10° SW
FALCON 9 DEB 3.0 05:30:00 14° SW 05:32:37 78° SSE 05:35:46 10° ENE
Cosmos 1656 Rocket 4.3 05:27:44 10° NNW 05:33:06 55° ENE 05:38:24 10° SE
Cosmos 1606 Rocket 3.4 05:29:40 10° SSW 05:33:57 65° W 05:38:17 10° N
Cosmos 1825 4.1 05:31:39 10° N 05:35:05 31° ENE 05:38:29 10° SE
NOAA 6 4.0 05:31:51 10° NNE 05:37:04 86° WNW 05:42:16 10° SSW
Cosmos 1455 3.8 05:34:12 10° SSE 05:37:39 37° E 05:41:09 10° NNE
Cosmos 2058 4.1 05:35:22 10° N 05:39:20 44° ENE 05:43:15 10° SSE
FALCON 9 DEB 2.7 05:38:25 13° WSW 05:41:07 82° NNW 05:44:13 10° ENE
Lacrosse 4 Rocket 2.7 05:40:48 15° W 05:43:09 23° NW 05:46:43 10° N
Cosmos 1300 3.3 05:42:30 10° SW 05:45:58 33° WNW 05:49:28 10° N
Cosmos 1315 Rocket 3.3 05:46:57 10° SW 05:50:34 35° WNW 05:54:13 10° N
[s.n.47389] 3.2 05:49:35 10° SW 05:52:06 52° SE 05:54:38 10° ENE
[s.n.47399] 3.2 05:49:37 10° SW 05:52:08 52° SE 05:54:41 10° ENE
[s.n.47393] 3.2 05:49:39 10° SW 05:52:10 52° SSE 05:54:43 10° ENE
[s.n.47353] 3.2 05:49:43 10° SW 05:52:15 52° SE 05:54:47 10° ENE
[s.n.47355] 3.2 05:49:46 10° SW 05:52:18 52° SE 05:54:51 10° ENE
[s.n.47365] 3.2 05:49:49 10° SW 05:52:21 52° SSE 05:54:54 10° ENE
[s.n.47383] 3.2 05:49:54 10° SW 05:52:26 52° SE 05:54:58 10° ENE
[s.n.47400] 3.2 05:49:53 10° SW 05:52:27 53° SE 05:55:03 10° ENE
[s.n.47378] 3.2 05:50:01 10° SW 05:52:32 52° SE 05:55:05 10° ENE
[s.n.47395] 3.2 05:50:03 10° SW 05:52:34 52° SE 05:55:07 10° ENE
[s.n.47379] 3.1 05:50:09 10° SW 05:52:41 53° SE 05:55:14 10° ENE
[s.n.47370] 3.1 05:50:10 10° SW 05:52:41 52° SE 05:55:14 10° ENE
[s.n.47351] 3.2 05:50:11 10° SW 05:52:44 53° SSE 05:55:20 10° ENE
[s.n.47394] 3.1 05:50:16 10° SW 05:52:47 53° SSE 05:55:20 10° ENE
[s.n.47354] 3.1 05:50:20 10° SW 05:52:51 53° SSE 05:55:24 10° ENE
[s.n.47360] 3.1 05:50:22 10° SW 05:52:53 53° SSE 05:55:26 10° ENE
[s.n.47369] 3.1 05:50:27 10° SW 05:52:59 53° SE 05:55:31 10° ENE
[s.n.47406] 3.1 05:50:28 10° SW 05:53:00 53° SE 05:55:33 10° ENE
[s.n.47384] 3.1 05:50:32 10° SW 05:53:03 53° SSE 05:55:37 10° ENE
[s.n.47356] 3.1 05:50:35 10° SW 05:53:07 53° SE 05:55:40 10° ENE
[s.n.47407] 3.1 05:50:38 10° SW 05:53:10 53° SE 05:55:43 10° ENE
[s.n.47385] 3.1 05:50:38 10° SW 05:53:12 54° SE 05:55:48 10° ENE
[s.n.47358] 3.1 05:50:46 10° SW 05:53:18 53° SE 05:55:50 10° ENE
[s.n.47398] 3.1 05:50:47 10° SW 05:53:19 53° SSE 05:55:52 10° ENE
Cosmos 1655 Rocket 4.0 05:47:02 10° N 05:53:20 84° W 05:59:39 10° S
[s.n.47361] 3.1 05:50:52 10° SW 05:53:24 54° SE 05:55:57 10° ENE
[s.n.47392] 3.1 05:50:53 10° SW 05:53:25 54° SE 05:55:58 10° ENE
[s.n.47382] 3.1 05:50:57 10° SW 05:53:29 54° SE 05:56:02 10° ENE
[s.n.47359] 3.1 05:50:58 10° SW 05:53:32 54° SSE 05:56:07 10° ENE
[s.n.47401] 3.1 05:51:05 10° SW 05:53:37 54° SSE 05:56:09 10° ENE
[s.n.47380] 3.1 05:51:03 10° SW 05:53:38 54° SSE 05:56:14 10° ENE
[s.n.47386] 3.1 05:51:12 10° SW 05:53:43 54° SSE 05:56:17 10° ENE
[s.n.47408] 3.1 05:51:11 10° SW 05:53:46 55° SE 05:56:22 10° ENE
[s.n.47396] 3.1 05:51:18 10° SW 05:53:49 54° SE 05:56:22 10° ENE
[s.n.47391] 3.1 05:51:19 10° SW 05:53:51 54° SSE 05:56:25 10° ENE
[s.n.47402] 3.1 05:51:22 10° SW 05:53:55 54° SE 05:56:28 10° ENE
[s.n.47404] 3.1 05:51:26 10° SW 05:53:59 54° SE 05:56:32 10° ENE
[s.n.47403] 3.1 05:51:29 10° SW 05:54:02 54° SE 05:56:35 10° ENE
[s.n.47381] 3.1 05:51:33 10° SW 05:54:05 54° SE 05:56:38 10° ENE
[s.n.47372] 3.1 05:51:37 10° SW 05:54:09 55° SSE 05:56:42 10° ENE
[s.n.47405] 3.1 05:51:39 10° SW 05:54:12 55° SE 05:56:44 10° ENE
[s.n.47368] 3.1 05:51:44 10° SW 05:54:17 55° SE 05:56:50 10° ENE
[s.n.47350] 3.1 05:51:46 10° SW 05:54:18 55° SSE 05:56:52 10° ENE
[s.n.47349] 3.1 05:51:46 10° SW 05:54:21 55° SSE 05:56:57 10° ENE
[s.n.47367] 3.1 05:51:51 10° SW 05:54:24 55° SE 05:56:59 10° ENE
[s.n.47373] 3.1 05:51:52 10° SW 05:54:27 55° SSE 05:57:03 10° ENE
[s.n.47377] 3.1 05:51:55 10° SW 05:54:31 56° SE 05:57:07 10° ENE
[s.n.47371] 3.1 05:51:58 10° SW 05:54:33 56° SSE 05:57:09 10° ENE
[s.n.47362] 3.1 05:52:01 10° SW 05:54:36 56° SSE 05:57:12 10° ENE
[s.n.47363] 3.1 05:52:05 10° SW 05:54:40 56° SSE 05:57:16 10° ENE
[s.n.47374] 3.1 05:52:10 10° SW 05:54:44 56° SE 05:57:18 10° ENE
[s.n.47357] 3.1 05:52:14 10° SW 05:54:47 56° SSE 05:57:21 10° ENE
[s.n.47390] 3.0 05:52:18 10° SW 05:54:50 55° SSE 05:57:24 10° ENE
[s.n.47387] 3.1 05:52:20 10° SW 05:54:53 56° SSE 05:57:27 10° ENE
[s.n.47375] 3.0 05:52:21 10° SW 05:54:54 56° SSE 05:57:28 10° ENE
[s.n.47376] 3.1 05:52:20 10° SW 05:54:56 56° SE 05:57:33 10° ENE
[s.n.47366] 3.0 05:52:30 10° SW 05:55:04 56° SSE 05:57:38 10° ENE
[s.n.47352] 3.1 05:52:33 10° SW 05:55:07 56° SSE 05:57:42 10° ENE
[s.n.47364] 3.1 05:52:37 10° SW 05:55:11 56° SE 05:57:46 10° ENE
[s.n.47388] 3.0 05:52:40 10° SW 05:55:14 56° SSE 05:57:49 10° ENE
[s.n.47397] 3.0 05:52:46 10° SW 05:55:19 56° SSE 05:57:53 10° ENE
PAYLOAD B 4.2 05:49:57 10° NNE 05:55:34 79° WNW 06:01:10 10° SSW
Cosmos 2180 Rocket 4.5 05:49:30 10° SSW 05:55:44 74° W 06:02:06 10° N
NOAA 11 4.4 05:50:24 10° NNE 05:55:54 78° ESE 06:01:20 10° S
Cosmos 1346 Rocket 4.2 05:55:19 10° NW 05:58:13 19° W 06:01:06 10° SW
ATLAS 3B R/B 3.9 05:53:25 10° S 05:59:35 46° ESE 06:05:53 10° NE
USA 238 DEB 3.9 05:55:14 10° WSW 06:01:38 49° NW 06:08:23 10° NE
USA 238 3.9 05:55:20 10° WSW 06:01:44 49° NW 06:08:29 10° NE
Cosmos 783 Rocket 4.5 05:58:27 10° SSW 06:03:38 79° WNW 06:08:52 10° NNE
NOAA 12 4.1 05:58:48 10° N 06:04:06 72° WNW 06:09:23 10° SSW
FALCON 9 DEB 4.4 06:01:26 10° WNW 06:04:29 29° N 06:07:31 10° ENE
Cosmos 1441 Rocket 3.2 06:06:05 10° NNW 06:10:01 68° W 06:13:52 10° S
ATLAS CENTAUR R/B 2.9 06:08:21 10° WNW 06:10:30 15° NNW 06:12:40 10° N
SL-19 R/B 4.5 06:10:42 10° N 06:14:13 39° WNW 06:17:18 10° SW
FengYun 1-2 T 4.3 06:09:20 10° NNE 06:15:03 83° WNW 06:20:42 10° SSW
MOS 1-B 4.5 06:11:33 10° N 06:17:10 53° WNW 06:22:45 10° SW
